Monistrol de Calders (Moianès)





Hora UTC 20:35
Temperatura 6.5 ºC
Humedad 59.0 %
Presión 1004.8 hPa
Pluja 0.0 mm
Velocidad viento 0.0 km/h
Dirección viento WNW

Datos diarios 2024-02-23



Hora UTC (invierno +1h; verano +2h)
Temperatura (ºC) Humedad (%) Presión (hPa) Velocidad viento (km/h) Precipitación (mm)
Hora UTC Aire Humedad Presión Vel. Dir. Vel. Max Dir. Intent. máx 5 min.
00:05 12.8 71.0 1002.5 0.0 WNW 0.0 0.0
00:10 12.8 71.0 1002.4 0.0 WNW 1.6 0.0
00:15 12.8 72.0 1002.3 0.0 WSW 4.8 0.0
00:20 12.7 72.0 1002.2 0.0 WSW 4.8 0.0
00:25 12.6 72.0 1001.9 0.0 WSW 1.6 0.0
00:30 12.5 72.0 1001.8 0.0 S 1.6 0.0
00:35 12.4 73.0 1001.8 0.0 S 0.0 0.0
00:40 12.4 73.0 1001.9 0.0 SSW 0.0 0.0
00:45 12.4 73.0 1002.0 0.0 S 0.0 0.0
00:50 12.3 74.0 1002.1 0.0 WSW 0.0 0.0
00:55 12.3 74.0 1002.1 0.0 S 4.8 0.0
01:00 12.2 73.0 1002.1 1.6 WSW 16.1 0.0
01:05 11.7 73.0 1002.4 0.0 W 16.1 0.0
01:10 11.2 72.0 1002.3 0.0 WNW 12.9 0.0
01:15 10.9 73.0 1002.3 0.0 WSW 11.3 0.0
01:20 10.7 74.0 1002.5 1.6 W 19.3 0.0
01:25 10.5 74.0 1002.9 0.0 WNW 19.3 0.0
01:30 10.2 74.0 1002.9 0.0 WNW 14.5 0.0
01:35 9.9 74.0 1003.0 1.6 WNW 19.3 0.0
01:40 9.7 74.0 1003.0 0.0 NW 19.3 0.0
01:45 9.6 74.0 1002.8 6.4 WSW 17.7 0.0
01:50 9.4 74.0 1002.9 0.0 WNW 25.7 0.0
01:55 9.3 74.0 1002.9 9.7 WNW 25.7 0.0
02:00 9.2 74.0 1002.9 0.0 SW 11.3 0.0
02:05 9.1 74.0 1002.9 9.7 W 11.3 0.0
02:10 8.9 73.0 1002.6 0.0 SW 16.1 0.0
02:15 8.8 73.0 1002.8 0.0 N 16.1 0.0
02:20 8.7 72.0 1002.8 11.3 NW 17.7 0.0
02:25 8.6 72.0 1002.6 0.0 NW 17.7 0.0
02:30 8.6 72.0 1002.4 0.0 W 1.6 0.0
02:35 8.4 72.0 1002.6 0.0 WSW 1.6 0.0
02:40 8.4 72.0 1002.6 0.0 WSW 1.6 0.0
02:45 8.3 72.0 1002.4 0.0 W 1.6 0.0
02:50 8.2 72.0 1002.3 0.0 WNW 1.6 0.0
02:55 8.1 73.0 1002.5 0.0 WNW 0.0 0.0
03:00 8.1 73.0 1002.3 0.0 WNW 1.6 0.0
03:05 8.0 73.0 1002.1 0.0 WNW 1.6 0.0
03:10 7.9 73.0 1002.2 0.0 SSW 1.6 0.0
03:15 7.9 73.0 1002.1 0.0 WNW 1.6 0.0
03:20 7.8 72.0 1002.2 0.0 W 1.6 0.0
03:25 7.8 72.0 1002.1 0.0 WNW 4.8 0.0
03:30 7.7 72.0 1002.0 0.0 WSW 4.8 0.0
03:35 7.6 72.0 1002.1 0.0 NW 1.6 0.0
03:40 7.6 73.0 1002.1 0.0 WNW 1.6 0.0
03:45 7.4 73.0 1002.1 0.0 WSW 1.6 0.0
03:50 7.3 72.0 1002.1 0.0 SW 1.6 0.0
03:55 7.1 72.0 1002.0 0.0 WSW 1.6 0.0
04:00 7.0 72.0 1002.1 0.0 W 0.0 0.0
04:05 6.8 72.0 1002.0 0.0 W 0.0 0.0
04:10 6.7 72.0 1002.0 0.0 WNW 0.0 0.0
04:15 6.5 73.0 1002.0 0.0 NW 0.0 0.0
04:20 6.3 72.0 1002.1 0.0 WNW 0.0 0.0
04:25 6.3 73.0 1002.2 0.0 WNW 0.0 0.0
04:30 6.2 73.0 1002.2 0.0 WNW 0.0 0.0
04:35 6.1 73.0 1002.3 0.0 WNW 0.0 0.0
04:40 6.0 74.0 1002.3 0.0 WNW 0.0 0.0
04:45 6.0 73.0 1002.3 0.0 S 0.0 0.0
04:50 6.1 73.0 1002.3 0.0 WSW 0.0 0.0
04:55 6.1 73.0 1002.3 0.0 WSW 0.0 0.0
05:00 6.1 73.0 1002.3 0.0 WNW 0.0 0.0
05:05 6.1 73.0 1002.2 0.0 WNW 0.0 0.0
05:10 6.1 73.0 1002.1 0.0 WNW 0.0 0.0
05:15 6.1 73.0 1002.2 0.0 WNW 0.0 0.0
05:20 5.9 73.0 1002.3 0.0 WNW 0.0 0.0
05:25 5.8 73.0 1002.4 0.0 W 8.0 0.0
05:30 5.8 74.0 1002.4 0.0 WNW 8.0 0.0
05:35 5.7 74.0 1002.5 0.0 WNW 0.0 0.0
05:40 5.7 74.0 1002.7 0.0 NNW 0.0 0.0
05:45 5.7 75.0 1002.7 0.0 E 0.0 0.0
05:50 5.6 75.0 1002.7 0.0 NNE 0.0 0.0
05:55 5.6 75.0 1002.6 0.0 WNW 0.0 0.0
06:00 5.4 75.0 1002.7 0.0 SE 1.6 0.0
06:05 5.4 75.0 1002.7 0.0 WNW 3.2 0.0
06:10 5.3 75.0 1002.8 0.0 WNW 3.2 0.0
06:15 5.1 76.0 1002.8 0.0 WNW 0.0 0.0
06:20 5.0 76.0 1002.8 0.0 WNW 0.0 0.0
06:25 4.8 77.0 1002.9 0.0 WNW 0.0 0.0
06:30 4.7 77.0 1002.8 0.0 WNW 0.0 0.0
06:35 4.5 77.0 1003.0 0.0 WNW 0.0 0.0
06:40 4.3 78.0 1002.9 0.0 WNW 0.0 0.0
06:45 4.2 78.0 1003.0 0.0 WNW 3.2 0.0
06:50 4.1 78.0 1003.1 0.0 WNW 3.2 0.0
06:55 4.1 79.0 1003.2 0.0 WNW 0.0 0.0
07:00 3.9 79.0 1003.3 0.0 WNW 0.0 0.0
07:05 3.7 79.0 1003.3 0.0 WNW 0.0 0.0
07:10 3.6 80.0 1003.4 0.0 WNW 0.0 0.0
07:15 3.5 80.0 1003.3 0.0 WNW 0.0 0.0
07:20 3.6 81.0 1003.5 0.0 WNW 0.0 0.0
07:25 3.7 81.0 1003.6 0.0 E 3.2 0.0
07:30 3.9 81.0 1003.8 0.0 WNW 3.2 0.0
07:35 4.3 81.0 1003.7 0.0 WNW 0.0 0.0
07:40 4.7 81.0 1003.9 0.0 WNW 0.0 0.0
07:45 5.1 79.0 1004.1 0.0 WNW 0.0 0.0
07:50 5.4 77.0 1004.1 0.0 WNW 0.0 0.0
07:55 5.6 77.0 1004.2 0.0 SW 1.6 0.0
08:00 5.7 76.0 1004.4 0.0 SW 1.6 0.0
08:05 5.8 75.0 1004.4 1.6 SW 1.6 0.0
08:10 5.9 75.0 1004.5 0.0 SW 1.6 0.0
08:15 6.1 73.0 1004.3 0.0 WSW 1.6 0.0
08:20 5.9 72.0 1004.2 0.0 WNW 3.2 0.0
08:25 6.1 72.0 1004.3 0.0 WNW 3.2 0.0
08:30 6.0 71.0 1004.5 0.0 W 1.6 0.0
08:35 6.1 71.0 1004.4 0.0 SW 4.8 0.0
08:40 6.4 72.0 1004.3 0.0 SE 4.8 0.0
08:45 7.0 70.0 1004.4 0.0 SE 1.6 0.0
08:50 7.0 67.0 1004.5 0.0 NW 4.8 0.0
08:55 7.1 66.0 1004.7 0.0 W 4.8 0.0
09:00 6.9 66.0 1004.6 0.0 W 11.3 0.0
09:05 6.8 66.0 1004.6 0.0 WNW 16.1 0.0
09:10 6.9 65.0 1004.6 0.0 NW 12.9 0.0
09:15 7.2 64.0 1004.6 0.0 W 24.1 0.0
09:20 7.2 64.0 1004.6 0.0 NW 24.1 0.0
09:25 7.6 63.0 1004.5 0.0 WNW 14.5 0.0
09:30 7.8 63.0 1004.6 0.0 WNW 14.5 0.0
09:35 8.2 63.0 1004.6 0.0 NNW 16.1 0.0
09:40 8.4 61.0 1004.6 4.8 W 16.1 0.0
09:45 8.2 62.0 1004.6 3.2 SSW 20.9 0.0
09:50 8.2 63.0 1004.5 8.0 WSW 17.7 0.0
09:55 8.3 62.0 1004.5 0.0 SW 17.7 0.0
10:00 8.6 62.0 1004.2 0.0 S 17.7 0.0
10:05 8.8 60.0 1004.2 0.0 W 22.5 0.0
10:10 8.7 60.0 1004.3 0.0 W 22.5 0.0
10:15 8.6 61.0 1004.2 3.2 W 25.7 0.0
10:20 8.7 61.0 1004.2 0.0 WSW 24.1 0.0
10:25 8.7 60.0 1004.4 0.0 W 24.1 0.0
10:30 8.7 60.0 1004.3 0.0 W 16.1 0.0
10:35 8.9 59.0 1004.4 0.0 WSW 22.5 0.0
10:40 9.1 60.0 1004.3 0.0 WNW 22.5 0.0
10:45 9.3 58.0 1004.2 20.9 NW 20.9 0.0
10:50 9.7 57.0 1004.2 14.5 NW 29.0 0.0
10:55 9.9 56.0 1004.3 0.0 S 29.0 0.0
11:00 10.1 55.0 1004.4 4.8 NW 19.3 0.0
11:05 10.2 55.0 1004.3 0.0 ENE 17.7 0.0
11:10 10.2 55.0 1004.3 0.0 SW 22.5 0.0
11:15 10.3 54.0 1004.1 0.0 SW 22.5 0.0
11:20 10.4 53.0 1004.2 0.0 SSE 16.1 0.0
11:25 10.5 52.0 1004.0 0.0 SSE 12.9 0.0
11:30 10.5 51.0 1004.1 0.0 SW 12.9 0.0
11:35 10.4 51.0 1004.0 0.0 SE 11.3 0.0
11:40 10.5 51.0 1004.0 0.0 NNE 9.7 0.0
11:45 10.6 51.0 1004.0 0.0 N 4.8 0.0
11:50 10.6 50.0 1003.9 4.8 WSW 12.9 0.0
11:55 10.4 51.0 1003.8 0.0 WNW 12.9 0.0
12:00 10.3 51.0 1003.9 0.0 SSW 8.0 0.0
12:05 10.2 52.0 1003.9 0.0 E 14.5 0.0
12:10 10.1 52.0 1003.9 0.0 WNW 19.3 0.0
12:15 9.9 53.0 1003.8 0.0 N 19.3 0.0
12:20 9.9 53.0 1003.7 0.0 ENE 9.7 0.0
12:25 9.9 53.0 1003.8 0.0 SW 9.7 0.0
12:30 9.9 53.0 1003.6 0.0 E 9.7 0.0
12:35 9.9 53.0 1003.6 8.0 ENE 12.9 0.0
12:40 9.8 53.0 1003.6 0.0 ENE 14.5 0.0
12:45 9.9 53.0 1003.5 0.0 NE 6.4 0.0
12:50 10.0 53.0 1003.4 0.0 SSW 9.7 0.0
12:55 10.1 53.0 1003.4 0.0 SE 14.5 0.0
13:00 10.1 53.0 1003.3 0.0 WSW 14.5 0.0
13:05 10.1 53.0 1003.2 0.0 E 8.0 0.0
13:10 10.2 52.0 1003.2 0.0 WNW 6.4 0.0
13:15 10.4 52.0 1003.1 0.0 WNW 6.4 0.0
13:20 10.6 51.0 1003.2 0.0 E 8.0 0.0
13:25 10.9 49.0 1002.9 0.0 WSW 35.4 0.0
13:30 11.2 49.0 1003.0 12.9 WSW 35.4 0.0
13:35 11.4 48.0 1003.0 11.3 W 20.9 0.0
13:40 11.6 48.0 1002.7 0.0 W 29.0 0.0
13:45 11.6 49.0 1003.0 0.0 WNW 29.0 0.0
13:50 11.2 48.0 1003.0 0.0 SSW 33.8 0.0
13:55 11.0 48.0 1003.1 0.0 WNW 33.8 0.0
14:00 10.9 48.0 1003.0 8.0 NW 22.5 0.0
14:05 10.9 49.0 1002.9 0.0 W 29.0 0.0
14:10 10.9 49.0 1003.0 0.0 WSW 29.0 0.0
14:15 10.9 49.0 1002.9 1.6 WSW 17.7 0.0
14:20 11.3 48.0 1002.8 0.0 SSE 24.1 0.0
14:25 11.4 47.0 1002.7 0.0 NW 41.8 0.0
14:30 11.2 48.0 1002.7 0.0 WNW 41.8 0.0
14:35 11.2 48.0 1002.7 0.0 WNW 20.9 0.0
14:40 11.2 47.0 1002.7 6.4 WSW 19.3 0.0
14:45 11.2 47.0 1002.9 14.5 W 32.2 0.0
14:50 11.5 47.0 1002.9 0.0 SSW 32.2 0.0
14:55 11.8 46.0 1003.0 8.0 NW 32.2 0.0
15:00 11.9 45.0 1003.0 3.2 W 32.2 0.0
15:05 11.8 45.0 1003.0 3.2 WSW 25.7 0.0
15:10 11.7 45.0 1002.8 0.0 S 20.9 0.0
15:15 11.9 44.0 1003.0 17.7 WNW 30.6 0.0
15:20 11.8 44.0 1003.1 0.0 NNW 35.4 0.0
15:25 11.8 44.0 1002.9 27.4 W 30.6 0.0
15:30 11.8 44.0 1002.9 11.3 W 29.0 0.0
15:35 11.6 44.0 1002.8 0.0 NE 35.4 0.0
15:40 11.6 44.0 1002.9 0.0 W 35.4 0.0
15:45 11.6 44.0 1003.1 4.8 W 35.4 0.0
15:50 11.6 44.0 1002.9 0.0 NW 35.4 0.0
15:55 11.7 44.0 1002.8 0.0 WNW 30.6 0.0
16:00 11.6 43.0 1002.7 1.6 S 33.8 0.0
16:05 11.5 44.0 1002.7 0.0 SSW 33.8 0.0
16:10 11.6 44.0 1002.7 0.0 WSW 27.4 0.0
16:15 11.6 44.0 1002.7 0.0 WNW 27.4 0.0
16:20 11.4 44.0 1002.6 0.0 S 22.5 0.0
16:25 11.3 44.0 1002.5 0.0 WNW 25.7 0.0
16:30 11.3 44.0 1003.0 0.0 WSW 38.6 0.0
16:35 11.2 44.0 1003.0 8.0 WSW 35.4 0.0
16:40 11.0 44.0 1003.2 6.4 WSW 38.6 0.0
16:45 10.8 45.0 1003.3 0.0 WNW 38.6 0.0
16:50 10.7 45.0 1003.4 8.0 NW 35.4 0.0
16:55 10.6 44.0 1003.6 3.2 W 25.7 0.0
17:00 10.6 44.0 1003.5 4.8 W 27.4 0.0
17:05 10.4 43.0 1003.8 0.0 W 32.2 0.0
17:10 10.3 44.0 1003.8 0.0 WNW 32.2 0.0
17:15 10.2 44.0 1003.6 6.4 SW 24.1 0.0
17:20 10.2 44.0 1003.8 0.0 WNW 27.4 0.0
17:25 10.1 45.0 1003.9 0.0 NW 27.4 0.0
17:30 10.0 45.0 1004.1 0.0 WNW 27.4 0.0
17:35 9.9 46.0 1004.2 14.5 WSW 14.5 0.0
17:40 9.8 46.0 1004.1 14.5 WNW 25.7 0.0
17:45 9.8 46.0 1004.1 3.2 W 27.4 0.0
17:50 9.7 47.0 1004.0 0.0 NW 20.9 0.0
17:55 9.6 47.0 1004.0 0.0 W 14.5 0.0
18:00 9.6 48.0 1004.0 0.0 WNW 14.5 0.0
18:05 9.5 48.0 1004.1 0.0 NW 16.1 0.0
18:10 9.4 48.0 1004.1 0.0 WNW 16.1 0.0
18:15 9.3 49.0 1004.2 0.0 WNW 9.7 0.0
18:20 9.3 49.0 1004.2 0.0 ENE 1.6 0.0
18:25 9.3 49.0 1004.3 0.0 E 1.6 0.0
18:30 9.3 49.0 1004.3 0.0 ENE 3.2 0.0
18:35 9.3 49.0 1004.4 0.0 NE 3.2 0.0
18:40 9.3 50.0 1004.4 0.0 NE 1.6 0.0
18:45 9.2 50.0 1004.4 0.0 E 0.0 0.0
18:50 9.1 50.0 1004.6 0.0 S 0.0 0.0
18:55 9.1 51.0 1004.7 0.0 S 0.0 0.0
19:00 8.9 51.0 1004.8 0.0 WSW 0.0 0.0
19:05 8.9 51.0 1004.8 0.0 WSW 0.0 0.0
19:10 8.7 51.0 1004.8 0.0 ESE 0.0 0.0
19:15 8.7 52.0 1004.8 0.0 SW 1.6 0.0
19:20 8.6 52.0 1004.9 0.0 SW 0.0 0.0
19:25 8.4 52.0 1004.9 0.0 SSW 0.0 0.0
19:30 8.4 53.0 1005.0 0.0 SW 0.0 0.0
19:35 8.3 53.0 1004.9 0.0 E 0.0 0.0
19:40 8.4 53.0 1004.9 0.0 NW 0.0 0.0
19:45 8.4 53.0 1004.9 0.0 WNW 0.0 0.0
19:50 8.3 53.0 1004.9 0.0 WNW 0.0 0.0
19:55 8.3 53.0 1004.8 0.0 SW 9.7 0.0
20:00 8.4 53.0 1004.9 0.0 WNW 9.7 0.0
20:05 8.2 53.0 1004.9 0.0 WNW 0.0 0.0
20:10 7.7 55.0 1005.0 0.0 WNW 0.0 0.0
20:15 7.3 56.0 1005.0 0.0 WNW 0.0 0.0
20:20 6.9 57.0 1005.0 0.0 WNW 0.0 0.0
20:25 6.7 59.0 1005.0 0.0 WNW 0.0 0.0
20:30 6.5 59.0 1005.1 0.0 WNW 0.0 0.0
20:35 6.5 59.0 1004.8 0.0 WNW 0.0 0.0
Máxima 12.8 81.0 1005.1 27.4 W 41.8 0.0
Mínima 3.5 43.0 1001.8
Total 0.0